Flag for Central African Republic Weather past 2 weeks in Bambari, Central African Republic

Now
86 °F

Broken clouds.


Feels Like: 93 °F
Forecast: 69 / 86 °F
Wind: 2 mph from North

Location: Bangui Airport

Current Time: Aug 28, 2014 at 3:06:21 PM

Latest Report: Aug 28, 2014 at 2:00 PM


Visibility: N/A

Pressure: 29.83 "Hg

Humidity: 66%

Dew point: 73 °F

Location of BambariLocation

Historic Weather in Bambari — Graph

°F

Bambari temperature yesterday

Maximum temperature yesterday: 77 °F (at 3:00 PM)
Minimum temperature yesterday: 70 °F (at 8:00 AM)
Average temperature yesterday: 74 °F

Past Weeks' High & Low Weather Summary

 TemperatureHumidityPressure
High93 °F (Aug 16, 2:00 PM)100% (Aug 13, 6:00 PM)30.04 "Hg (Aug 13, 6:00 PM)
Low68 °F (Aug 14, 3:00 AM)49% (Aug 16, 2:00 PM)29.74 "Hg (Aug 17, 4:00 PM)
Average77 °F87%29.91 "Hg
* Reported Aug 13 2:00 PM — Aug 28 2:00 PM, Bambari, Weather by CustomWeather, © 2014

Note: Actual official high and low records may vary slightly from our data, if they occured in-between our weather recording intervals... More about our weather records

Advertising

Bambari weather history for previous 24 hours

 ConditionsComfort  
Time TempWeatherWind HumidityBarometerVisibility
2:00 PM
Aug 28
86 °FBroken clouds.2 mph66%29.83 "HgN/A
1:00 PM88 °FBroken clouds.3 mph62%29.86 "HgN/A
12:00 PM84 °FBroken clouds.3 mph70%29.89 "HgN/A
11:00 AM81 °FBroken clouds.3 mph79%29.92 "HgN/A
10:00 AM77 °FBroken clouds.1 mph89%29.95 "HgN/A
9:00 AM73 °FMore clouds than sun.2 mph94%29.95 "Hg5 mi
8:00 AM72 °FBroken clouds.1 mph100%29.95 "Hg4 mi
7:00 AM70 °FFog.2 mph100%29.92 "Hg1 mi
6:00 AM70 °FFog.1 mph100%29.92 "Hg1 mi
5:00 AM70 °FPassing clouds.No wind100%29.89 "Hg4 mi
4:00 AM70 °FFog.No wind100%29.89 "Hg2 mi
3:00 AM70 °FFog.No wind100%29.89 "Hg1 mi
2:00 AM70 °FPassing clouds.No wind100%29.89 "Hg4 mi
1:00 AM70 °FPartly cloudy.1 mph100%29.92 "Hg4 mi
12:00 AM70 °FPartly cloudy.1 mph100%29.92 "Hg4 mi
11:00 PM
Aug 27
72 °FPassing clouds.1 mph100%29.92 "Hg4 mi
10:00 PM72 °FPassing clouds.No wind100%29.95 "Hg4 mi
9:00 PM72 °FPassing clouds.No wind100%29.92 "Hg4 mi
8:00 PM72 °FPassing clouds.3 mph100%29.89 "Hg4 mi
7:00 PM73 °FPassing clouds.2 mph94%29.86 "Hg4 mi
6:00 PM75 °FMostly cloudy.3 mph89%29.86 "Hg5 mi
5:00 PM77 °FLight rain. More clouds than sun.2 mph83%29.86 "HgN/A
4:00 PM75 °FLight rain. More clouds than sun.5 mph94%29.86 "HgN/A
3:00 PM77 °FMore clouds than sun.3 mph83%29.86 "HgN/A
Weather by CustomWeather, © 2014

See weather overviewHow to use our weather pages